When you browse on this site, cookies collect data to enhance your experience and personalize the content and advertising you see.
Visit our Privacy Policy to learn more. By continuing to use the site, you agree to this use of cookies and data.
  • In Austria
  • List of Countries
  • For 7 days
  • Water Temperature
  • Satellite Maps
  • Weather Map
  • News
  • Weather Widgets
  • user-avatar
    Login

    Hourly Weather State College

    Today, 17 February, Sunday

    Time Temperature Precipitation Wind Pressure Humidity
    00:00 -4°C° 0 mm 1 mps 732 mmHg 86%
    01:00 -6°C° 0 mm 0 mps 732 mmHg 86%
    02:00 -6°C° 0 mm 1 mps 732 mmHg 86%
    03:00 -6°C° 0 mm 1 mps 732 mmHg 87%
    04:00 -6°C° 0 mm 1 mps 732 mmHg 87%
    05:00 -6°C° 0 mm 1 mps 732 mmHg 88%
    06:00 -7°C° 0 mm 1 mps 732 mmHg 88%
    07:00 -7°C° 0 mm 1 mps 732 mmHg 88%
    08:00 -4°C° 0 mm 1 mps 732 mmHg 81%
    09:00 -5°C° 0 mm 2 mps 732 mmHg 74%
    10:00 -4°C° 0 mm 2 mps 732 mmHg 67%
    11:00 -3°C° 0 mm 2 mps 731 mmHg 64%
    12:00 -1°C° 0 mm 3 mps 731 mmHg 61%
    13:00 0°C° 0 mm 3 mps 731 mmHg 58%
    14:00 0°C° 0 mm 3 mps 730 mmHg 61%
    15:00 -1°C° 0 mm 4 mps 729 mmHg 63%
    16:00 -1°C° 0 mm 4 mps 728 mmHg 65%
    17:00 -2°C° 0.5 mm 4 mps 728 mmHg 74%
    18:00 -2°C° 0.5 mm 4 mps 727 mmHg 84%
    19:00 -3°C° 0.5 mm 4 mps 727 mmHg 93%
    20:00 -2°C° 1 mm 3 mps 727 mmHg 93%
    21:00 -2°C° 1 mm 2 mps 726 mmHg 94%
    22:00 -2°C° 1 mm 2 mps 726 mmHg 94%
    23:00 0°C° 0.3 mm 1 mps 725 mmHg 94%

    Tomorrow, 18 February, Monday

    Time Temperature Precipitation Wind Pressure Humidity
    00:00 +1°C° 0.3 mm 1 mps 725 mmHg 95%
    01:00 +1°C° 0.3 mm 1 mps 725 mmHg 96%
    02:00 +1°C° 0.1 mm 1 mps 724 mmHg 96%
    03:00 +1°C° 0.1 mm 1 mps 724 mmHg 96%
    04:00 0°C° 0.1 mm 0 mps 724 mmHg 97%
    05:00 +1°C° 0.1 mm 1 mps 725 mmHg 97%
    06:00 +1°C° 0.1 mm 1 mps 725 mmHg 96%
    07:00 +1°C° 0.1 mm 2 mps 726 mmHg 96%
    08:00 0°C° 0 mm 3 mps 726 mmHg 92%
    09:00 0°C° 0 mm 3 mps 727 mmHg 87%
    10:00 -1°C° 0 mm 4 mps 728 mmHg 83%
    11:00 -1°C° 0 mm 5 mps 729 mmHg 79%
    12:00 -1°C° 0 mm 5 mps 730 mmHg 76%
    13:00 -1°C° 0 mm 5 mps 730 mmHg 72%
    14:00 -2°C° 0 mm 5 mps 731 mmHg 72%
    15:00 -2°C° 0 mm 5 mps 732 mmHg 72%
    16:00 -2°C° 0 mm 5 mps 733 mmHg 72%
    17:00 -3°C° 0 mm 4 mps 734 mmHg 74%
    18:00 -4°C° 0 mm 4 mps 735 mmHg 77%
    19:00 -5°C° 0 mm 3 mps 736 mmHg 79%
    20:00 -5°C° 0 mm 3 mps 737 mmHg 78%
    21:00 -6°C° 0 mm 3 mps 738 mmHg 77%
    22:00 -8°C° 0 mm 4 mps 739 mmHg 76%
    23:00 -7°C° 0 mm 3 mps 739 mmHg 76%

    Day after tomorrow, 19 February, Tuesday

    Time Temperature Precipitation Wind Pressure Humidity
    00:00 -7°C° 0 mm 3 mps 739 mmHg 76%
    01:00 -7°C° 0 mm 3 mps 740 mmHg 76%
    02:00 -8°C° 0 mm 3 mps 740 mmHg 78%
    03:00 -7°C° 0 mm 2 mps 741 mmHg 80%
    04:00 -7°C° 0 mm 2 mps 741 mmHg 82%
    05:00 -8°C° 0 mm 2 mps 742 mmHg 83%
    06:00 -8°C° 0 mm 2 mps 742 mmHg 84%
    07:00 -8°C° 0 mm 2 mps 743 mmHg 85%
    08:00 -8°C° 0 mm 2 mps 743 mmHg 79%
    09:00 -7°C° 0 mm 2 mps 744 mmHg 73%
    10:00 -6°C° 0 mm 2 mps 744 mmHg 67%
    11:00 -5°C° 0 mm 2 mps 744 mmHg 62%
    12:00 -4°C° 0 mm 2 mps 744 mmHg 57%
    13:00 -3°C° 0 mm 2 mps 744 mmHg 51%
    14:00 -2°C° 0 mm 2 mps 743 mmHg 51%
    15:00 -2°C° 0 mm 2 mps 743 mmHg 52%
    16:00 -2°C° 0 mm 2 mps 743 mmHg 52%
    17:00 -1°C° 0 mm 1 mps 743 mmHg 58%
    18:00 -2°C° 0 mm 1 mps 743 mmHg 64%
    19:00 -4°C° 0 mm 0 mps 743 mmHg 70%
    20:00 -4°C° 0 mm 0 mps 743 mmHg 71%
    21:00 -5°C° 0 mm 0 mps 743 mmHg 73%
    22:00 -5°C° 0 mm 0 mps 743 mmHg 74%
    23:00 -5°C° 0 mm 0 mps 743 mmHg 75%

    20 February, Wednesday

    Time Temperature Precipitation Wind Pressure Humidity
    00:00 -4°C° 0 mm 1 mps 742 mmHg 77%
    01:00 -4°C° 0 mm 1 mps 742 mmHg 78%
    02:00 -4°C° 0 mm 1 mps 741 mmHg 79%
    03:00 -4°C° 0 mm 1 mps 741 mmHg 79%
    04:00 -6°C° 0 mm 2 mps 740 mmHg 80%
    05:00 -6°C° 0.1 mm 2 mps 740 mmHg 79%
    06:00 -6°C° 0.1 mm 2 mps 740 mmHg 79%
    07:00 -6°C° 0.1 mm 3 mps 739 mmHg 79%
    08:00 -6°C° 0.5 mm 3 mps 739 mmHg 82%
    09:00 -7°C° 0.5 mm 4 mps 738 mmHg 86%
    10:00 -7°C° 0.5 mm 4 mps 738 mmHg 90%
    11:00 -7°C° 0.8 mm 5 mps 737 mmHg 90%
    12:00 -7°C° 0.8 mm 5 mps 736 mmHg 90%
    13:00 -6°C° 0.8 mm 5 mps 735 mmHg 90%
    14:00 -6°C° 0.1 mm 5 mps 735 mmHg 91%
    15:00 -5°C° 0.1 mm 5 mps 734 mmHg 91%
    16:00 -4°C° 0.1 mm 4 mps 733 mmHg 91%
    17:00 -3°C° 0.1 mm 4 mps 732 mmHg 92%
    18:00 -2°C° 0.1 mm 3 mps 732 mmHg 93%
    19:00 -2°C° 0.1 mm 3 mps 732 mmHg 94%
    20:00 -1°C° 0.2 mm 3 mps 731 mmHg 94%
    21:00 -1°C° 0.2 mm 2 mps 731 mmHg 94%
    22:00 -1°C° 0.2 mm 2 mps 730 mmHg 95%
    23:00 +1°C° 0.1 mm 1 mps 730 mmHg 96%

    21 February, Thursday

    Time Temperature Precipitation Wind Pressure Humidity
    00:00 +1°C° 0.1 mm 1 mps 730 mmHg 96%
    01:00 +1°C° 0.1 mm 1 mps 729 mmHg 97%
    02:00 +1°C° 0 mm 1 mps 729 mmHg 97%
    03:00 +1°C° 0 mm 1 mps 729 mmHg 97%
    04:00 +2°C° 0 mm 1 mps 729 mmHg 97%
    05:00 +1°C° 0 mm 2 mps 730 mmHg 94%
    06:00 0°C° 0 mm 3 mps 731 mmHg 92%
    07:00 -1°C° 0 mm 4 mps 731 mmHg 90%
    08:00 0°C° 0 mm 4 mps 732 mmHg 87%
    09:00 0°C° 0 mm 4 mps 733 mmHg 84%
    10:00 0°C° 0 mm 4 mps 734 mmHg 81%
    11:00 +1°C° 0 mm 4 mps 734 mmHg 79%
    12:00 +1°C° 0 mm 4 mps 735 mmHg 77%
    13:00 +3°C° 0 mm 4 mps 735 mmHg 75%
    14:00 +1°C° 0 mm 4 mps 735 mmHg 75%
    15:00 +2°C° 0 mm 3 mps 735 mmHg 76%
    16:00 +2°C° 0 mm 3 mps 736 mmHg 76%
    17:00 +1°C° 0 mm 3 mps 736 mmHg 81%
    18:00 -1°C° 0 mm 2 mps 737 mmHg 85%
    19:00 0°C° 0 mm 1 mps 737 mmHg 90%
    20:00 0°C° 0 mm 1 mps 737 mmHg 90%
    21:00 0°C° 0 mm 1 mps 738 mmHg 90%
    22:00 -2°C° 0 mm 0 mps 738 mmHg 90%
    23:00 -2°C° 0 mm 0 mps 738 mmHg 90%

    22 February, Friday

    Time Temperature Precipitation Wind Pressure Humidity
    00:00 -2°C° 0 mm 0 mps 738 mmHg 90%
    01:00 -2°C° 0 mm 0 mps 738 mmHg 90%
    02:00 -2°C° 0 mm 0 mps 738 mmHg 90%
    03:00 -2°C° 0 mm 0 mps 738 mmHg 90%
    04:00 -1°C° 0 mm 1 mps 738 mmHg 90%
    05:00 -1°C° 0 mm 1 mps 738 mmHg 90%
    06:00 -1°C° 0 mm 1 mps 738 mmHg 90%
    07:00 -1°C° 0 mm 1 mps 738 mmHg 89%
    08:00 0°C° 0 mm 1 mps 738 mmHg 87%
    09:00 0°C° 0 mm 1 mps 739 mmHg 85%
    10:00 +1°C° 0 mm 1 mps 739 mmHg 82%
    11:00 +2°C° 0 mm 1 mps 738 mmHg 79%
    12:00 +3°C° 0 mm 1 mps 738 mmHg 75%
    13:00 +4°C° 0 mm 2 mps 738 mmHg 72%
    14:00 +4°C° 0 mm 2 mps 737 mmHg 74%
    15:00 +4°C° 0 mm 2 mps 737 mmHg 76%
    16:00 +4°C° 0 mm 2 mps 737 mmHg 78%
    17:00 +4°C° 0 mm 1 mps 737 mmHg 83%
    18:00 +2°C° 0 mm 1 mps 737 mmHg 88%
    19:00 +1°C° 0 mm 1 mps 737 mmHg 92%
    20:00 -1°C° 0 mm 0 mps 738 mmHg 93%
    21:00 -1°C° 0 mm 0 mps 738 mmHg 93%
    22:00 -1°C° 0 mm 0 mps 738 mmHg 94%
    23:00 -1°C° 0 mm 0 mps 738 mmHg 94%
    Show more